[[{"header":{"parameterUnit":"m.s-1","parameterCategory":1,"la1":30.2991,"la2":30.254,"lo1":-89.0895,"lo2":-89.0444,"dy":0.0017,"dx":0.0017,"nx":28,"ny":28,"refTime":"2025-12-23T03:00:00:Z","depth":0,"parameterNumber":2,"parameterNumberName":"U-component_of_WINDS"},"data":[0,0,0,0,0,0,0,0,0,0,0,0,0,0,0,0,0,0,0,0,0,0,0,0,0,0,0,0,0,0,0,0,0,0,0,0,0,0,0,0,0,0,0,0,0,0,0,0,0,0,0,0,0,0,0,0,0,0,0.2302,0.2302,0,0.2381,0.2382,0.2383,0.2437,0.2437,0.2438,0.2438,0.2521,0.2523,0.2524,0,0,0,0,0,0,0,0,0,0,0,0,0,0.2198,0.22,0.2301,0.2302,0.2303,0.2381,0.2382,0.2383,0.2437,0.2437,0.2438,0.2438,0.252,0.2522,0.2525,0,0,0,0,0,0,0,0,0,0,0,0,0,0.2257,0.22,0.2301,0.234,0.2344,0.238,0.2382,0.2383,0.2437,0.2437,0.2438,0.2439,0.252,0.2522,0.2525,0.253,0,0,0.2533,0.2535,0,0,0,0,0,0,0,0,0.2253,0.226,0.2333,0.2337,0.2342,0.24,0.2376,0.2432,0.2437,0.2402,0.2438,0.2439,0.248,0.2486,0.25,0.2534,0.2537,0.2534,0.2535,0.2536,0.2537,0,0,0,0,0,0,0,0.2249,0.2257,0.2333,0.2334,0.234,0.2353,0.2362,0.2387,0.2437,0.2405,0.2409,0.2417,0.2483,0.2497,0.2502,0.2539,0.2534,0.2536,0.2538,0.2539,0.258,0.2579,0,0,0,0,0,0,0.2239,0.2254,0.233,0.2335,0.2298,0.2355,0.2365,0.238,0.2436,0.2446,0.2417,0.242,0.2492,0.2499,0.2505,0.2514,0.2536,0.2539,0.2541,0.258,0.258,0.2579,0,0,0,0,0,0,0.2236,0.2245,0.2327,0.2296,0.2307,0.2356,0.2373,0.2382,0.2396,0.2446,0.2455,0.2422,0.2493,0.2501,0.2523,0.2518,0.254,0.2543,0.2581,0.258,0.2579,0.2532,0,0,0,0,0,0,0.2233,0.2244,0.2246,0.2295,0.2309,0.2343,0.2373,0.2383,0.24,0.2405,0.2453,0.2462,0.2494,0.2519,0.2526,0.2522,0.2545,0.2582,0.2581,0.258,0.2534,0.2529,0.2525,0,0,0,0,0,0.2229,0.223,0.2246,0.2255,0.2312,0.2343,0.2351,0.2387,0.24,0.2402,0.2434,0.246,0.2517,0.252,0.2529,0.2526,0.2582,0.2581,0.258,0.2536,0.253,0.2525,0,0,0,0,0,0,0.218,0.2237,0.2256,0.2272,0.2302,0.2352,0.2356,0.238,0.2408,0.2411,0.2455,0.2466,0.2483,0.2507,0.2509,0.2533,0.2553,0.2553,0.2517,0.2512,0.2507,0.2501,0.2547,0,0,0,0,0,0.2171,0.2191,0.224,0.225,0.2264,0.2307,0.2322,0.2348,0.2381,0.2394,0.2427,0.2458,0.2483,0.2499,0.2525,0.2538,0.2549,0.254,0.2535,0.2532,0.2531,0.2539,0.2535,0.2575,0.2575,0.2575,0,0,0.2153,0.2187,0.2197,0.2241,0.2267,0.2286,0.2318,0.2337,0.2352,0.2397,0.2419,0.2444,0.2482,0.2499,0.2509,0.252,0.2523,0.253,0.2527,0.2528,0.2537,0.2533,0.253,0.2574,0.2574,0.2574,0,0,0.213,0.2157,0.2168,0.2193,0.2232,0.2261,0.2263,0.2309,0.2328,0.235,0.2384,0.2403,0.2445,0.247,0.2489,0.2473,0.2498,0.2481,0.2458,0.2465,0.2462,0.2459,0.2453,0.245,0.248,0.248,0.248,0,0.2102,0.2132,0.2171,0.2188,0.2206,0.2247,0.2258,0.2281,0.2326,0.2338,0.235,0.2403,0.2432,0.2454,0.245,0.2464,0.2468,0.2475,0.2459,0.2457,0.2455,0.245,0.2447,0.2478,0.2478,0.2478,0.2479,0,0.2096,0.2117,0.2121,0.2162,0.2181,0.2195,0.2236,0.2251,0.2274,0.2302,0.2324,0.2359,0.2392,0.24,0.2424,0.2426,0.2432,0.2451,0.2471,0.2448,0.2444,0.2442,0.2474,0.2475,0.2476,0.2477,0,0,0.2044,0.2106,0.2107,0.2126,0.2172,0.2188,0.2204,0.2236,0.2247,0.2277,0.2291,0.2325,0.2342,0.2363,0.239,0.2396,0.2381,0.2415,0.2416,0.2406,0.2384,0.2369,0.2366,0.2398,0.2397,0.2397,0.2381,0,0.2027,0.2057,0.2091,0.2109,0.2128,0.2167,0.218,0.221,0.2235,0.2256,0.2285,0.2308,0.233,0.2342,0.235,0.2381,0.2377,0.2383,0.2411,0.2411,0.2399,0.2364,0.2348,0.2331,0.238,0.2379,0.2379,0,0.2011,0.2038,0.2057,0.21,0.2109,0.2121,0.2152,0.2171,0.2205,0.2223,0.2245,0.2274,0.2292,0.2311,0.2336,0.234,0.2353,0.237,0.237,0.2374,0.2393,0.2366,0.2327,0.2324,0.2377,0.2377,0.2377,0,0.197,0.2011,0.2027,0.2043,0.2093,0.21,0.2122,0.2156,0.2173,0.22,0.2211,0.2241,0.2257,0.2279,0.2315,0.2325,0.2336,0.2358,0.2352,0.2351,0.2352,0.2351,0.2314,0.2362,0.2362,0.2362,0.2362,0,0.1946,0.1956,0.2009,0.2019,0.2032,0.2072,0.2083,0.2108,0.2138,0.2154,0.2189,0.2203,0.225,0.2269,0.2298,0.2314,0.2321,0.2336,0.2344,0.2333,0.2331,0.2342,0.2344,0.2361,0.2361,0.2361,0.2362,0,0.1902,0.1938,0.1959,0.2004,0.2016,0.2023,0.2063,0.2074,0.2102,0.2121,0.2128,0.2171,0.2196,0.2234,0.227,0.2289,0.23,0.2313,0.2288,0.2293,0.2284,0.2284,0.2251,0.2249,0.2299,0.2298,0.2298,0,0.1884,0.1893,0.1939,0.1952,0.1972,0.1992,0.2009,0.2049,0.2064,0.2103,0.2109,0.2137,0.2161,0.2198,0.2233,0.2261,0.2274,0.2261,0.2278,0.2266,0.2272,0.2271,0.2272,0.2256,0.2255,0.2255,0.2254,0,0.1849,0.1866,0.1888,0.1917,0.1935,0.196,0.1986,0.1994,0.204,0.2056,0.2081,0.2099,0.2135,0.2162,0.2194,0.2217,0.2243,0.2248,0.2248,0.2237,0.2222,0.2229,0.2276,0.2249,0.2249,0.225,0.225,0.225,0.1817,0.1826,0.1859,0.1883,0.1907,0.193,0.1942,0.1971,0.1993,0.2025,0.2047,0.2071,0.2104,0.215,0.2171,0.219,0.2201,0.2201,0.2201,0.22,0.2196,0.2219,0.2196,0.2196,0.2197,0.2197,0.2197,0,0.1782,0.1805,0.1827,0.1862,0.188,0.1902,0.1932,0.1946,0.1966,0.1995,0.2017,0.2046,0.2071,0.2108,0.2136,0.2144,0.2157,0.215,0.215,0.2154,0.2185,0.2181,0.214,0.214,0.214,0.214,0.214,0.214,0.1766,0.1782,0.1803,0.1831,0.1854,0.1877,0.1892,0.1914,0.1937,0.1966,0.1987,0.2011,0.2043,0.2074,0.2098,0.2108,0.2116,0.2106,0.2119,0.2147,0.2152,0.2157,0.2154,0.2108,0.2108,0.2088,0.2087,0.2087]},{"header":{"parameterUnit":"m.s-1","parameterCategory":1,"la1":30.2991,"la2":30.254,"lo1":-89.0895,"lo2":-89.0444,"dy":0.0017,"dx":0.0017,"nx":28,"ny":28,"refTime":"2025-12-23T03:00:00:Z","depth":0,"parameterNumber":3,"parameterNumberName":"V-component_of_WINDS"},"data":[0,0,0,0,0,0,0,0,0,0,0,0,0,0,0,0,0,0,0,0,0,0,0,0,0,0,0,0,0,0,0,0,0,0,0,0,0,0,0,0,0,0,0,0,0,0,0,0,0,0,0,0,0,0,0,0,0,0,1.1255,1.1254,0,1.1201,1.1201,1.12,1.1215,1.1216,1.1217,1.1218,1.1159,1.1156,1.1153,0,0,0,0,0,0,0,0,0,0,0,0,0,1.1367,1.1365,1.1255,1.1254,1.1254,1.1201,1.1201,1.12,1.1215,1.1216,1.1217,1.1219,1.1159,1.1156,1.1153,0,0,0,0,0,0,0,0,0,0,0,0,0,1.1316,1.1364,1.1255,1.1255,1.1254,1.1201,1.12,1.12,1.1214,1.1216,1.1218,1.1219,1.116,1.1157,1.1153,1.1095,0,0,1.1141,1.1139,0,0,0,0,0,0,0,0,1.1319,1.1312,1.1256,1.1255,1.1254,1.1217,1.1218,1.1165,1.1214,1.1229,1.1218,1.122,1.1176,1.1171,1.1157,1.1093,1.109,1.1141,1.1138,1.1136,1.1135,0,0,0,0,0,0,0,1.1322,1.1314,1.1234,1.1255,1.1254,1.1256,1.1251,1.1208,1.1194,1.1228,1.1229,1.1223,1.1176,1.1161,1.1156,1.1089,1.1141,1.1137,1.1135,1.1133,1.0974,1.0973,0,0,0,0,0,0,1.1327,1.1317,1.1235,1.1232,1.1291,1.1253,1.1247,1.1227,1.1195,1.1191,1.1221,1.1224,1.1167,1.1161,1.1154,1.1084,1.1136,1.1133,1.1131,1.0976,1.0974,1.0972,0,0,0,0,0,0,1.1329,1.132,1.1237,1.1275,1.1265,1.1249,1.1227,1.1225,1.121,1.119,1.1187,1.1209,1.1168,1.1159,1.111,1.1082,1.1131,1.1127,1.0978,1.0976,1.0973,1.0945,0,0,0,0,0,0,1.1333,1.132,1.1299,1.1274,1.1263,1.1196,1.1225,1.1223,1.1204,1.1206,1.1177,1.1174,1.1169,1.1116,1.1106,1.1078,1.1124,1.0981,1.0977,1.0974,1.0948,1.0941,1.0935,0,0,0,0,0,1.1336,1.1293,1.1298,1.1288,1.1236,1.1194,1.1187,1.1183,1.1201,1.1179,1.1166,1.1175,1.1087,1.1111,1.11,1.107,1.0983,1.0978,1.0974,1.0951,1.0943,1.0936,0,0,0,0,0,0,1.1313,1.1289,1.1295,1.1242,1.122,1.1197,1.1169,1.1175,1.1146,1.1149,1.1145,1.1138,1.1087,1.1074,1.11,1.1013,1.1037,1.1031,1.1023,1.1015,1.1009,1.1013,1.1121,0,0,0,0,0,1.1302,1.1271,1.1252,1.1207,1.1195,1.1184,1.1166,1.1165,1.1141,1.1131,1.1115,1.109,1.1058,1.1036,1.1004,1.0946,1.094,1.092,1.0914,1.0909,1.0903,1.0871,1.0862,1.0958,1.0958,1.0958,0,0,1.1278,1.1261,1.1242,1.1201,1.1184,1.1151,1.1176,1.114,1.1115,1.1125,1.1078,1.1065,1.1038,1.0984,1.0959,1.0971,1.0875,1.0904,1.09,1.0897,1.0866,1.0856,1.0848,1.0955,1.0956,1.0956,0,0,1.1218,1.1203,1.1163,1.1146,1.112,1.1113,1.1104,1.108,1.1072,1.1025,1.1032,1.1001,1.0945,1.0925,1.0907,1.084,1.0846,1.083,1.0797,1.0765,1.0758,1.0751,1.0726,1.0717,1.0824,1.0824,1.0824,0,1.1191,1.1143,1.1142,1.1105,1.1087,1.1097,1.1056,1.1039,1.1004,1.099,1.1005,1.0934,1.0916,1.0857,1.0841,1.0827,1.0815,1.0833,1.0759,1.0752,1.0746,1.0722,1.0713,1.0822,1.0823,1.0823,1.0823,0,1.1111,1.1077,1.1048,1.1016,1.0994,1.0956,1.0948,1.0926,1.0927,1.0918,1.0869,1.0849,1.0813,1.0799,1.0799,1.074,1.0748,1.0761,1.0785,1.0735,1.0712,1.0703,1.082,1.082,1.0821,1.0821,0,0,1.1032,1.1001,1.099,1.0976,1.0949,1.0922,1.0884,1.085,1.0831,1.0807,1.0773,1.0726,1.0738,1.0718,1.0716,1.0688,1.0635,1.0704,1.0703,1.0691,1.0568,1.0558,1.0547,1.064,1.0638,1.0637,1.057,0,1.0969,1.0904,1.0902,1.0841,1.0809,1.0819,1.0785,1.0764,1.0755,1.0726,1.0715,1.0681,1.07,1.0688,1.0661,1.0648,1.061,1.0653,1.0608,1.0606,1.0613,1.0536,1.0525,1.0462,1.0561,1.056,1.0559,0,1.0886,1.0861,1.0797,1.0775,1.0761,1.0732,1.0701,1.0674,1.0649,1.0645,1.0623,1.0625,1.0585,1.0612,1.0555,1.0584,1.0565,1.0556,1.0554,1.0548,1.0578,1.0527,1.0442,1.0433,1.0545,1.0546,1.0547,0,1.0835,1.0784,1.074,1.0727,1.07,1.0679,1.0666,1.0644,1.0624,1.0597,1.0584,1.0552,1.0534,1.0508,1.0502,1.0522,1.0445,1.0471,1.0438,1.0438,1.042,1.0421,1.033,1.041,1.0411,1.0411,1.0411,0,1.0763,1.0724,1.0716,1.0689,1.0645,1.0643,1.0598,1.0587,1.0568,1.0537,1.0543,1.0514,1.0507,1.0476,1.0471,1.0424,1.0416,1.041,1.0409,1.0409,1.0409,1.0396,1.0399,1.0408,1.0409,1.0409,1.041,0,1.0698,1.0691,1.0643,1.0622,1.0616,1.0584,1.0565,1.0538,1.053,1.0491,1.0482,1.0469,1.0433,1.0424,1.0381,1.0377,1.0322,1.0325,1.033,1.033,1.0297,1.0299,1.0193,1.0178,1.0269,1.0268,1.0267,0,1.0652,1.0622,1.0598,1.0579,1.0566,1.0535,1.0515,1.0512,1.0491,1.0462,1.0438,1.0403,1.0375,1.0317,1.0302,1.0269,1.0271,1.0236,1.0265,1.0266,1.0269,1.027,1.0267,1.0229,1.0228,1.0228,1.0227,0,1.0571,1.057,1.0542,1.0513,1.049,1.0466,1.0444,1.0427,1.0421,1.0397,1.0361,1.0339,1.0296,1.026,1.0227,1.0213,1.0218,1.0218,1.0208,1.0207,1.0211,1.0208,1.0313,1.022,1.0221,1.0221,1.0222,1.0222,1.0513,1.0487,1.0467,1.0435,1.0418,1.0397,1.0371,1.036,1.0331,1.0296,1.0296,1.0257,1.0233,1.0189,1.0173,1.0141,1.0152,1.0138,1.0134,1.0131,1.0127,1.0218,1.0135,1.0135,1.0136,1.0136,1.0136,0,1.0432,1.042,1.0391,1.036,1.0335,1.0345,1.0321,1.0299,1.0265,1.0243,1.0216,1.0174,1.014,1.0123,1.0089,1.0067,1.0069,1.0058,1.0059,1.0055,1.012,1.0132,1.0057,1.0057,1.0057,1.0057,1.0057,1.0057,1.0387,1.0343,1.0339,1.0286,1.0274,1.0237,1.0222,1.0202,1.0185,1.0139,1.0111,1.0102,1.0081,1.0046,1.0015,1.0011,0.9997,0.9985,0.9982,1.0043,1.0051,1.0058,1.0069,0.9983,0.9982,0.992,0.9919,0.9918]}]]